Location: Amsterdam
(30.7274°N, 84.4357°W)
Time: 08:12:20
(UTC+00:00)

Tiros 1 - All Passes

Search period start: 16 February 2026 00:00
Search period end: 26 February 2026 00:00
Orbit: 618 x 649 km, 48.4° (Epoch: 14 February)

Date Brightness Start Highest point End Pass type
(mag) Time Alt. Az. Time Alt. Az. Time Alt. Az.
16 Feb - 12:27:59 10° S 12:31:10 18° SE 12:34:20 10° E daylight
16 Feb - 14:08:11 10° WSW 14:12:44 58° NW 14:17:15 10° NE daylight
16 Feb - 15:52:52 10° NW 15:55:21 14° NNW 15:57:49 10° NNE daylight
16 Feb - 19:20:08 10° NNW 19:22:35 14° NNE 19:25:02 10° NE daylight
16 Feb - 21:00:43 10° NW 21:05:13 58° NE 21:09:42 10° ESE daylight
16 Feb - 22:43:39 10° W 22:46:44 18° SW 22:49:51 10° S daylight
17 Feb - 12:48:11 10° SSW 12:52:35 45° SE 12:56:58 10° ENE daylight
17 Feb - 14:30:35 10° W 14:34:34 28° NNW 14:38:32 10° NNE daylight
17 Feb - 19:41:03 10° NNW 19:44:43 23° NNE 19:48:23 10° E daylight
17 Feb - 21:22:22 10° WNW 21:26:50 59° SW 21:31:19 10° SE daylight
18 Feb - 11:30:21 10° SSE 11:32:43 14° SE 11:35:05 10° E visible
18 Feb - 13:09:32 10° SW 13:14:09 75° NW 13:18:45 10° NE daylight
18 Feb - 14:53:42 10° WNW 14:56:38 16° NNW 14:59:33 10° NNE daylight
18 Feb - 18:21:55 10° N 18:23:51 12° NNE 18:25:47 10° NE daylight
18 Feb - 20:02:15 10° NW 20:06:38 45° NE 20:10:59 10° ESE daylight
18 Feb - 21:44:39 10° WNW 21:48:17 24° SW 21:51:55 10° S daylight
19 Feb - 11:49:53 10° SSW 11:54:04 34° SE 11:58:15 10° ENE visible
19 Feb - 13:31:43 10° W 13:35:55 34° NW 13:40:08 10° NNE daylight
19 Feb - 15:17:46 10° NNW 15:18:54 11° NNW 15:20:02 10° N daylight
19 Feb - 18:42:41 10° NNW 18:46:03 20° NNE 18:49:24 10° ENE daylight
19 Feb - 20:23:46 10° NW 20:28:19 78° SW 20:32:51 10° SE daylight
20 Feb - 10:33:43 10° SE 10:34:16 10° SE 10:34:48 10° ESE visible
20 Feb - 12:10:57 10° SW 12:15:36 85° SE 12:20:12 10° NE daylight
20 Feb - 13:54:36 10° WNW 13:57:55 19° NNW 14:01:14 10° NNE daylight
20 Feb - 17:23:46 10° N 17:25:05 11° NNE 17:26:23 10° NNE daylight
20 Feb - 19:03:48 10° NNW 19:08:00 36° NE 19:12:13 10° ESE daylight
20 Feb - 20:45:48 10° WNW 20:49:49 31° SW 20:53:48 10° SSE daylight
21 Feb - 10:51:42 10° S 10:55:35 26° SE 10:59:27 10° ENE visible
21 Feb - 12:32:53 10° WSW 12:37:18 43° NW 12:41:42 10° NE daylight
21 Feb - 14:18:17 10° NW 14:20:08 12° NNW 14:21:58 10° N daylight
21 Feb - 17:44:20 10° NNW 17:47:20 17° NNE 17:50:20 10° ENE daylight
21 Feb - 19:25:12 10° NW 19:29:46 81° NE 19:34:18 10° SE daylight
21 Feb - 21:09:19 10° WSW 21:11:09 12° SW 21:12:58 10° SSW daylight
22 Feb - 11:12:26 10° SW 11:17:02 65° SE 11:21:38 10° NE visible
22 Feb - 12:55:34 10° W 12:59:13 23° NNW 13:02:52 10° NNE daylight
22 Feb - 18:05:22 10° NNW 18:09:23 30° NNE 18:13:22 10° E daylight
22 Feb - 19:47:02 10° WNW 19:51:18 41° SW 19:55:34 10° SSE daylight
23 Feb - 09:53:40 10° S 09:57:05 20° SE 10:00:30 10° E visible
23 Feb - 11:34:08 10° WSW 11:38:41 54° NW 11:43:13 10° NE visible
23 Feb - 13:18:58 10° NW 13:21:22 14° NNW 13:23:45 10° N daylight
23 Feb - 16:46:00 10° NNW 16:48:36 15° NNE 16:51:12 10° ENE daylight
23 Feb - 18:26:40 10° NW 18:31:11 63° NE 18:35:41 10° ESE daylight
23 Feb - 20:09:49 10° W 20:12:41 16° SW 20:15:31 10° SSW daylight
24 Feb - 10:14:00 10° SSW 10:18:30 49° SE 10:22:59 10° ENE visible
24 Feb - 11:56:35 10° W 12:00:32 27° NNW 12:04:28 10° NNE daylight
24 Feb - 17:06:56 10° NNW 17:10:43 25° NNE 17:14:27 10° E daylight
24 Feb - 18:48:20 10° WNW 18:52:47 54° SW 18:57:12 10° SSE daylight
25 Feb - 08:55:52 10° SSE 08:58:36 15° SE 09:01:19 10° E visible
25 Feb - 10:35:26 10° SW 10:40:04 70° NW 10:44:42 10° NE visible
25 Feb - 12:19:44 10° WNW 12:22:36 16° NNW 12:25:27 10° NNE daylight
25 Feb - 15:47:42 10° N 15:49:51 13° NNE 15:51:59 10° NE daylight
25 Feb - 17:28:09 10° NW 17:32:35 49° NE 17:36:59 10° ESE daylight
25 Feb - 19:10:43 10° W 19:14:12 22° SW 19:17:40 10° S daylight
